Date String (YYYY-MM-DD hh:mm:ss) UTC,Instrument flags,Ambient pressure (hPa),Sample flow (lpm),Bypass flow (lpm),Sample temperature (°C),Ambient temperature (°C),ASC tube jacket temperature (°C),LED temperature (°C),Box temperature (°C),Sample RH (%),Span deviation,Mass concentration (μg/m³),Mass concentration (μg/m³),Mass concentration (μg/m³)
DateTimeUTC,F1_M11,P_M11,Q1_M11,Q2_M11,T1_M11,T2_M11,T3_M11,T4_M11,T5_M11,U1_M11,ZSPAN_M11,X2_M11,X0_M11,X1_M11
2022-10-25 02:00:00,,0821.6,5.00,0.00,24.2,22.6,00.0,33.1,26.1,07.6,0000.0,0002.53,0005.35,0002.15
2022-10-25 02:01:00,,0821.7,5.00,0.00,24.2,22.6,00.0,33.1,26.0,07.6,0000.0,0002.55,0005.46,0002.14
2022-10-25 02:02:00,,0821.7,5.00,0.00,24.2,22.6,00.0,33.1,26.0,07.6,0000.0,0002.53,0005.33,0002.12
2022-10-25 02:03:00,,0821.7,5.00,0.00,24.2,22.6,00.0,33.1,26.0,07.6,0000.0,0002.51,0005.20,0002.12
2022-10-25 02:04:00,,0821.7,5.00,0.00,24.2,22.5,00.0,33.1,26.0,07.6,0000.0,0002.49,0005.13,0002.11
2022-10-25 02:05:00,,0821.8,5.00,0.00,24.2,22.5,00.0,33.1,25.9,07.6,0000.0,0002.46,0004.92,0002.11
2022-10-25 02:06:00,,0821.7,5.02,0.00,24.2,22.5,00.0,33.1,26.0,07.6,0000.0,0002.45,0004.86,0002.12
2022-10-25 02:07:00,,0821.7,5.00,0.00,24.2,22.5,00.0,33.1,25.9,07.6,0000.0,0002.43,0004.81,0002.12
2022-10-25 02:08:00,,0821.8,4.99,0.00,24.2,22.5,00.0,33.1,25.9,07.6,0000.0,0002.42,0004.55,0002.12
2022-10-25 02:09:00,,0821.7,5.00,0.00,24.2,22.5,00.0,33.1,26.0,07.6,0000.0,0002.38,0003.26,0002.12
2022-10-25 02:10:00,,0821.8,5.00,0.00,24.2,22.5,00.0,33.1,25.9,07.6,0000.0,0002.37,0003.33,0002.11
2022-10-25 02:11:00,,0821.8,5.00,0.00,24.2,22.5,00.0,33.1,25.9,07.6,0000.0,0002.33,0003.21,0002.11
2022-10-25 02:12:00,,0821.7,5.02,0.00,24.2,22.5,00.0,33.1,25.9,07.6,0000.0,0002.29,0003.14,0002.10
2022-10-25 02:13:00,,0821.8,5.00,0.00,24.1,22.5,00.0,33.1,25.9,07.6,0000.0,0002.27,0003.08,0002.09
2022-10-25 02:14:00,,0821.7,5.00,0.00,24.2,22.5,00.0,33.1,26.0,07.6,0000.0,0002.28,0003.05,0002.10
2022-10-25 02:15:00,,0821.7,5.00,0.00,24.2,22.6,00.0,33.1,25.9,07.6,0000.0,0002.29,0003.72,0002.11
2022-10-25 02:16:00,,0821.8,4.97,0.00,24.2,22.6,00.0,33.1,26.0,07.6,0000.0,0002.28,0004.26,0002.11
2022-10-25 02:17:00,,0821.8,5.02,0.00,24.2,22.6,00.0,33.1,26.0,07.6,0000.0,0002.29,0005.37,0002.11
2022-10-25 02:18:00,,0821.8,4.98,0.00,24.2,22.6,00.0,33.0,26.0,07.6,0000.0,0002.31,0005.70,0002.11
2022-10-25 02:19:00,,0821.8,5.00,0.00,24.2,22.6,00.0,33.0,26.0,07.6,0000.0,0002.30,0005.83,0002.10
2022-10-25 02:20:00,,0821.8,5.00,0.00,24.2,22.6,00.0,33.1,25.9,07.4,0000.0,0002.29,0005.82,0002.10
2022-10-25 02:21:00,,0821.8,5.00,0.00,24.1,22.5,00.0,33.0,25.9,07.2,0000.0,0002.28,0006.70,0002.10
2022-10-25 02:22:00,,0821.9,5.00,0.00,24.2,22.5,00.0,33.1,26.0,07.3,0000.0,0002.30,0007.22,0002.10
2022-10-25 02:23:00,,0821.8,5.00,0.00,24.1,22.5,00.0,33.0,25.9,07.4,0000.0,0002.35,0007.65,0002.12
2022-10-25 02:24:00,,0822.0,4.99,0.00,24.2,22.6,00.0,33.0,26.0,07.4,0000.0,0002.39,0007.68,0002.14
2022-10-25 02:25:00,,0821.8,5.01,0.00,24.2,22.6,00.0,33.0,26.0,07.5,0000.0,0002.42,0007.70,0002.16
2022-10-25 02:26:00,,0821.8,5.01,0.00,24.2,22.6,00.0,33.0,26.0,07.3,0000.0,0002.46,0007.35,0002.19
2022-10-25 02:27:00,,0821.8,5.00,0.00,24.2,22.6,00.0,33.0,26.0,07.3,0000.0,0002.52,0006.94,0002.21
2022-10-25 02:28:00,,0821.8,4.97,0.00,24.2,22.6,00.0,33.0,26.1,07.3,0000.0,0002.53,0006.59,0002.22
2022-10-25 02:29:00,,0821.8,5.02,0.00,24.2,22.6,00.0,33.0,26.0,07.3,0000.0,0002.54,0006.93,0002.24
2022-10-25 02:30:00,,0821.9,4.98,0.00,24.2,22.6,00.0,33.0,26.0,07.4,0000.0,0002.56,0006.77,0002.26
2022-10-25 02:31:00,,0821.8,5.00,0.00,24.2,22.6,00.0,33.0,26.1,07.4,0000.0,0002.63,0006.88,0002.31
2022-10-25 02:32:00,,0822.0,5.01,0.00,24.2,22.6,00.0,33.0,26.0,07.4,0000.0,0002.67,0006.00,0002.33
2022-10-25 02:33:00,,0821.8,5.01,0.00,24.2,22.6,00.0,33.0,26.0,07.3,0000.0,0002.68,0005.56,0002.35
2022-10-25 02:34:00,,0821.8,5.00,0.00,24.2,22.6,00.0,33.0,26.0,07.2,0000.0,0002.66,0004.82,0002.36
2022-10-25 02:35:00,,0821.8,5.00,0.00,24.2,22.5,00.0,33.0,25.9,07.3,0000.0,0002.70,0004.87,0002.36
2022-10-25 02:36:00,,0821.8,5.00,0.00,24.2,22.6,00.0,33.0,26.0,07.3,0000.0,0002.73,0004.94,0002.37
2022-10-25 02:37:00,,0821.8,4.99,0.00,24.2,22.6,00.0,33.0,26.0,07.3,0000.0,0002.75,0005.73,0002.37
2022-10-25 02:38:00,,0821.8,5.00,0.00,24.2,22.6,00.0,33.0,26.1,07.3,0000.0,0002.71,0006.06,0002.38
2022-10-25 02:39:00,,0822.0,5.01,0.00,24.2,22.6,00.0,33.0,26.1,07.3,0000.0,0002.73,0005.53,0002.38
2022-10-25 02:40:00,,0822.0,4.97,0.00,24.2,22.5,00.0,33.0,26.0,07.4,0000.0,0002.73,0004.87,0002.40
2022-10-25 02:41:00,,0822.0,5.03,0.00,24.1,22.5,00.0,33.0,26.0,07.4,0000.0,0002.74,0004.92,0002.42
2022-10-25 02:42:00,,0822.1,4.98,0.00,24.1,22.5,00.0,33.0,26.0,07.4,0000.0,0002.73,0004.97,0002.42
2022-10-25 02:43:00,,0822.1,5.02,0.00,24.1,22.4,00.0,33.0,25.9,07.3,0000.0,0002.76,0004.98,0002.44
2022-10-25 02:44:00,,0822.0,5.00,0.00,24.1,22.4,00.0,33.0,25.9,07.3,0000.0,0002.79,0005.01,0002.45
2022-10-25 02:45:00,,0822.1,4.98,0.00,24.0,22.4,00.0,33.0,25.9,07.2,0000.0,0002.78,0004.99,0002.45
2022-10-25 02:46:00,,0822.1,5.01,0.00,24.0,22.3,00.0,32.9,25.8,07.3,0000.0,0002.75,0004.89,0002.47
2022-10-25 02:47:00,,0822.1,5.01,0.00,24.0,22.3,00.0,32.9,25.8,07.4,0000.0,0002.72,0004.80,0002.48
2022-10-25 02:48:00,,0822.1,5.01,0.00,24.0,22.4,00.0,32.9,25.9,07.4,0000.0,0002.69,0004.02,0002.47
2022-10-25 02:49:00,,0822.0,5.01,0.00,24.0,22.4,00.0,32.9,25.9,07.3,0000.0,0002.72,0004.57,0002.48
2022-10-25 02:50:00,,0822.0,4.99,0.00,24.0,22.5,00.0,32.9,25.9,07.2,0000.0,0002.74,0004.62,0002.48
2022-10-25 02:51:00,,0822.0,5.00,0.00,24.0,22.5,00.0,32.9,25.9,07.4,0000.0,0002.74,0004.59,0002.49
2022-10-25 02:52:00,,0821.9,5.00,0.00,24.0,22.5,00.0,32.9,25.9,07.4,0000.0,0002.72,0004.54,0002.48
2022-10-25 02:53:00,,0821.9,5.01,0.00,24.0,22.5,00.0,32.9,25.9,07.2,0000.0,0002.70,0004.44,0002.47
2022-10-25 02:54:00,,0821.9,5.01,0.00,24.0,22.4,00.0,32.9,25.8,07.1,0000.0,0002.67,0004.38,0002.45
2022-10-25 02:55:00,,0821.9,5.01,0.00,24.0,22.4,00.0,32.9,25.8,07.2,0000.0,0002.61,0004.30,0002.42
2022-10-25 02:56:00,,0821.9,5.00,0.00,23.9,22.3,00.0,32.8,25.7,07.1,0000.0,0002.61,0004.33,0002.39
2022-10-25 02:57:00,,0821.9,5.00,0.00,23.9,22.2,00.0,32.8,25.6,07.1,0000.0,0002.59,0004.35,0002.35
2022-10-25 02:58:00,,0822.0,4.98,0.00,23.9,22.1,00.0,32.8,25.6,07.2,0000.0,0002.58,0004.38,0002.31
2022-10-25 02:59:00,,0822.0,5.02,0.00,23.8,22.0,00.0,32.8,25.6,07.2,0000.0,0002.58,0004.46,0002.29
